Regional Weather Roundup
Issued by NWS

Home | Current Version | Previous Version | Text Only | Print | Product List | Glossary Off
Versions: 1 2 3 4 5 6 7 8 9 10 11 12 13 14 15 16 17 18 19 20 21 22 23 24 25 26 27 28 29 30 31 32 33 34 35 36 37 38 39 40 41 42 43 44 45 46 47 48 49 50

000
ASUS43 KDMX 180006
RWRIA

WEATHER ROUNDUP FOR IOWA
NATIONAL WEATHER SERVICE DES MOINES IA
700 PM CDT TUE OCT 17 2017

NOTE: "FAIR" INDICATES FEW OR NO CLOUDS BELOW 12,000 FEET WITH NO
SIGNIFICANT WEATHER AND/OR OBSTRUCTIONS TO VISIBILITY.

* - THESE STATIONS ARE NOT NWS STATIONS...THUS NOT UNDER NWS
QUALITY CONTROL.  THEY ALSO DO NOT REPORT WEATHER SUCH
AS PRECIPITATION OR FOG.

IAZ001>003-012>014-020>022-031>034-043>046-180100-
   NORTHWEST IOWA

CITY           SKY/WX    TMP DP  RH WIND       PRES   REMARKS
CARROLL *      CLEAR     66  54  63 S8        30.00S
CHEROKEE *     CLEAR     60  46  58 S6        29.97R
DENISON *      CLEAR     63  46  55 S5        30.01S
LE MARS *      CLEAR     63  46  55 S6        29.95S HAZE
ORANGE CITY *  CLEAR     66  43  42 S3        29.96S
SHELDON *      CLEAR     54  43  66 S5        29.94S
SIOUX CITY     CLEAR     65  47  52 SE9       29.96S
6HR MIN TEMP:  65; 6HR MAX TEMP:  76;

SPENCER        CLEAR     62  42  47 S6        29.96S
6HR MIN TEMP:  62; 6HR MAX TEMP:  77;

STORM LAKE *   CLEAR     57  45  62 S9        29.99R
$$

IAZ055>058-069>071-079>083-090>094-180100-
   SOUTHWEST IOWA

CITY           SKY/WX    TMP DP  RH WIND       PRES   REMARKS
ATLANTIC *     CLEAR     61  46  59 CALM      30.01S
AUDUBON *      CLEAR     61  46  59 S5        30.02S
CLARINDA *     CLEAR     61  46  59 CALM      30.05R
COUNCIL BLFS * CLEAR     64  46  52 S6        30.00S
CRESTON *      CLEAR     61  45  55 S8        30.05R
HARLAN  *      CLEAR     61  46  59 CALM      30.04S
LAMONI         CLEAR     63  46  54 S9        30.06R
6HR MIN TEMP:  63; 6HR MAX TEMP:  71;

RED OAK *      CLEAR     63  46  55 CALM      30.01F
SHENANDOAH *   CLEAR     64  46  52 SE8       30.02R
$$

IAZ047>049-059>061-072>074-084-180100-
   CENTRAL IOWA

CITY           SKY/WX    TMP DP  RH WIND       PRES   REMARKS
AMES           CLEAR     60  46  59 S7        30.01S
6HR MIN TEMP:  60; 6HR MAX TEMP:  73;

ANKENY *       CLEAR     64  45  48 S6        30.04R
BOONE *        CLEAR     63  45  51 S6        30.01R
CHARITON *     CLEAR     61  45  55 S8        30.06R
DES MOINES     CLEAR     64  45  49 S7        30.03S
6HR MIN TEMP:  64; 6HR MAX TEMP:  73;

GRINNELL*      CLEAR     62  45  53 S6        30.06R
KNOXVILLE *    CLEAR     63  45  51 S8        30.04R
MARSHALLTOWN   CLEAR     62  45  53 S8        30.02S
6HR MIN TEMP:  62; 6HR MAX TEMP:  72;

NEWTON *       CLEAR     59  45  58 S8        30.05R
PELLA *        CLEAR     62  44  52 S7        30.06S
PERRY *          N/A     59  41  51 S6        30.01S
$$

IAZ004>006-015-016-023>025-035-036-180100-
   NORTH CENTRAL IOWA

CITY           SKY/WX    TMP DP  RH WIND       PRES   REMARKS
ALGONA *       CLEAR     59  45  58 S8        29.98S
CLARION *      CLEAR     61  46  59 S9        30.00R
ESTHERVILLE    CLEAR     61  42  49 S7        29.95S
6HR MIN TEMP:  61; 6HR MAX TEMP:  75;

FORT DODGE *   CLEAR     63  45  51 S8        30.00R
MASON CITY     CLEAR     56  43  61 S9        30.00S
6HR MIN TEMP:  56; 6HR MAX TEMP:  71;

FOREST CITY *    N/A     59  43  55 S7        29.98S
WEBSTER CITY * CLEAR     63  43  48 S7        29.99R
IOWA FALLS *     N/A     62  45  53 S7        30.03R
$$

IAZ007>011-017>019-026>030-037>042-050>054-066-180100-
   NORTHEAST IOWA

CITY           SKY/WX    TMP DP  RH WIND       PRES   REMARKS
CEDAR RAPIDS   CLEAR     61  43  51 S7        30.06R
6HR MIN TEMP:  61; 6HR MAX TEMP:  73;

CHARLES CITY * CLEAR     63  43  48 S7        30.01S
CLINTON *      CLEAR     56  42  59 S9        30.10S
DECORAH *      CLEAR     64  45  48 S7        30.00R
DUBUQUE        CLEAR     58  43  57 S10       30.06S
6HR MIN TEMP:  58; 6HR MAX TEMP:  70;

MONTICELLO *   CLEAR     61  43  51 S8        30.06R
OELWEIN *      CLEAR     61  45  55 S8        30.04R
WATERLOO       CLEAR     61  43  51 S8        30.02R
6HR MIN TEMP:  61; 6HR MAX TEMP:  73;

$$

IAZ064-065-067-068-078-180100-
   EAST CENTRAL IOWA

CITY           SKY/WX    TMP DP  RH WIND       PRES   REMARKS
DAVENPORT      CLEAR     61  42  49 S9        30.12R
6HR MIN TEMP:  60; 6HR MAX TEMP:  71;

IOWA CITY      CLEAR     61  44  53 S7        30.09R
6HR MIN TEMP:  61; 6HR MAX TEMP:  74; 6HR PCP: TRACE;

MUSCATINE *    CLEAR     59  45  58 S9        30.10R
QUAD CITIES    CLEAR     58  44  60 S3        30.10R
6HR MIN TEMP:  58; 6HR MAX TEMP:  71;

$$

IAZ062-063-075>077-085>089-095>099-180100-
   SOUTHEAST IOWA

CITY           SKY/WX    TMP DP  RH WIND       PRES   REMARKS
BURLINGTON     CLEAR     59  44  57 S7        30.11R
6HR MIN TEMP:  59; 6HR MAX TEMP:  71;

FAIRFIELD *    CLEAR     63  41  45 S7        30.08S
FORT MADISON * CLEAR     63  43  48 S5        30.12S
KEOKUK *       CLEAR     63  43  48 S5        30.11R
OSKALOOSA *      N/A     56  45  67 S9        30.07S
OTTUMWA        CLEAR     56  44  64 S7        30.07S
6HR MIN TEMP:  56; 6HR MAX TEMP:  72;

WASHINGTON *   CLEAR     59  45  58 S7        30.10R
$$

ABBREVIATIONS USED IN REMARKS
   TC - TEMPERATURES IN CELSIUS
  WCI - WIND CHILL INDEX
   HX - HEAT INDEX
  VSB - VISIBILITY
$$




USA.gov is the U.S. government's official web portal to all federal, state and local government web resources and services.